When you browse on this site, cookies collect data to enhance your experience and personalize the content and advertising you see.
Visit our Privacy Policy to learn more. By continuing to use the site, you agree to this use of cookies and data.
  • In Deutschland
  • Länderverzeichnis
  • Für 7 Tage
  • Wassertemperatur
  • Wetterkarte
  • Widgets
  • user-avatar
    Anmelden

    Stündliche Wetter Baku

    Heute, 22 August, Donnerstag

    Zeit Temperatur Niederschläge Wind Luftdruck Luftfeuchtigkeit
    00:00 +31°C° 0 mm 2 m/S 758 mmHg 37%
    01:00 +30°C° 0 mm 2 m/S 758 mmHg 39%
    02:00 +30°C° 0 mm 2 m/S 757 mmHg 41%
    03:00 +29°C° 0 mm 2 m/S 757 mmHg 43%
    04:00 +29°C° 0 mm 1 m/S 757 mmHg 42%
    05:00 +30°C° 0 mm 1 m/S 757 mmHg 42%
    06:00 +30°C° 0 mm 1 m/S 757 mmHg 41%
    07:00 +31°C° 0 mm 1 m/S 757 mmHg 37%
    08:00 +34°C° 0 mm 2 m/S 758 mmHg 32%
    09:00 +35°C° 0 mm 2 m/S 758 mmHg 28%
    10:00 +36°C° 0 mm 2 m/S 757 mmHg 26%
    11:00 +37°C° 0 mm 3 m/S 757 mmHg 24%
    12:00 +37°C° 0 mm 3 m/S 757 mmHg 22%
    13:00 +38°C° 0 mm 3 m/S 757 mmHg 21%
    14:00 +38°C° 0 mm 3 m/S 757 mmHg 21%
    15:00 +38°C° 0 mm 3 m/S 756 mmHg 20%
    16:00 +38°C° 0 mm 2 m/S 756 mmHg 21%
    17:00 +37°C° 0 mm 2 m/S 756 mmHg 22%
    18:00 +37°C° 0 mm 2 m/S 756 mmHg 22%
    19:00 +36°C° 0 mm 2 m/S 756 mmHg 25%
    20:00 +34°C° 0 mm 1 m/S 757 mmHg 27%
    21:00 +33°C° 0 mm 1 m/S 757 mmHg 29%
    22:00 +32°C° 0 mm 1 m/S 757 mmHg 30%
    23:00 +32°C° 0 mm 1 m/S 757 mmHg 31%

    Morgen, 23 August, Freitag

    Zeit Temperatur Niederschläge Wind Luftdruck Luftfeuchtigkeit
    00:00 +31°C° 0 mm 1 m/S 757 mmHg 31%
    01:00 +31°C° 0 mm 1 m/S 757 mmHg 33%
    02:00 +31°C° 0 mm 1 m/S 757 mmHg 34%
    03:00 +28°C° 0 mm 0 m/S 757 mmHg 36%
    04:00 +28°C° 0 mm 0 m/S 757 mmHg 35%
    05:00 +29°C° 0 mm 0 m/S 757 mmHg 34%
    06:00 +29°C° 0 mm 0 m/S 757 mmHg 33%
    07:00 +32°C° 0 mm 1 m/S 757 mmHg 31%
    08:00 +33°C° 0 mm 1 m/S 757 mmHg 28%
    09:00 +35°C° 0 mm 1 m/S 758 mmHg 26%
    10:00 +37°C° 0 mm 2 m/S 757 mmHg 24%
    11:00 +38°C° 0 mm 3 m/S 757 mmHg 23%
    12:00 +39°C° 0 mm 3 m/S 757 mmHg 22%
    13:00 +40°C° 0 mm 4 m/S 757 mmHg 21%
    14:00 +41°C° 0 mm 5 m/S 757 mmHg 20%
    15:00 +41°C° 0 mm 5 m/S 757 mmHg 20%
    16:00 +40°C° 0 mm 4 m/S 756 mmHg 21%
    17:00 +38°C° 0 mm 4 m/S 756 mmHg 21%
    18:00 +37°C° 0 mm 3 m/S 756 mmHg 22%
    19:00 +37°C° 0 mm 3 m/S 756 mmHg 24%
    20:00 +36°C° 0 mm 3 m/S 757 mmHg 26%
    21:00 +35°C° 0 mm 4 m/S 757 mmHg 28%
    22:00 +34°C° 0 mm 3 m/S 757 mmHg 30%
    23:00 +34°C° 0 mm 2 m/S 757 mmHg 32%

    übermorgen, 24 August, Samstag

    Zeit Temperatur Niederschläge Wind Luftdruck Luftfeuchtigkeit
    00:00 +32°C° 0 mm 1 m/S 757 mmHg 34%
    01:00 +32°C° 0 mm 1 m/S 757 mmHg 35%
    02:00 +31°C° 0 mm 1 m/S 757 mmHg 36%
    03:00 +31°C° 0 mm 2 m/S 757 mmHg 37%
    04:00 +31°C° 0 mm 2 m/S 757 mmHg 38%
    05:00 +31°C° 0 mm 2 m/S 757 mmHg 40%
    06:00 +31°C° 0 mm 2 m/S 757 mmHg 41%
    07:00 +33°C° 0 mm 3 m/S 757 mmHg 39%
    08:00 +35°C° 0 mm 4 m/S 757 mmHg 36%
    09:00 +36°C° 0 mm 5 m/S 758 mmHg 34%
    10:00 +36°C° 0 mm 5 m/S 758 mmHg 33%
    11:00 +37°C° 0 mm 5 m/S 757 mmHg 32%
    12:00 +38°C° 0 mm 6 m/S 757 mmHg 31%
    13:00 +39°C° 0 mm 5 m/S 757 mmHg 29%
    14:00 +39°C° 0 mm 5 m/S 757 mmHg 27%
    15:00 +39°C° 0 mm 5 m/S 757 mmHg 26%
    16:00 +37°C° 0 mm 4 m/S 757 mmHg 26%
    17:00 +37°C° 0 mm 4 m/S 757 mmHg 27%
    18:00 +36°C° 0 mm 4 m/S 757 mmHg 27%
    19:00 +35°C° 0 mm 4 m/S 757 mmHg 29%
    20:00 +35°C° 0 mm 3 m/S 757 mmHg 30%
    21:00 +34°C° 0 mm 3 m/S 758 mmHg 31%
    22:00 +33°C° 0 mm 3 m/S 758 mmHg 33%
    23:00 +33°C° 0 mm 4 m/S 758 mmHg 36%

    25 August, Sonntag

    Zeit Temperatur Niederschläge Wind Luftdruck Luftfeuchtigkeit
    00:00 +32°C° 0 mm 4 m/S 758 mmHg 38%
    01:00 +32°C° 0 mm 4 m/S 758 mmHg 40%
    02:00 +30°C° 0 mm 3 m/S 757 mmHg 42%
    03:00 +30°C° 0 mm 3 m/S 757 mmHg 44%
    04:00 +30°C° 0 mm 3 m/S 758 mmHg 44%
    05:00 +30°C° 0 mm 3 m/S 758 mmHg 45%
    06:00 +30°C° 0 mm 3 m/S 758 mmHg 45%
    07:00 +31°C° 0 mm 3 m/S 758 mmHg 40%
    08:00 +33°C° 0 mm 3 m/S 758 mmHg 35%
    09:00 +34°C° 0 mm 3 m/S 759 mmHg 30%
    10:00 +35°C° 0 mm 4 m/S 758 mmHg 27%
    11:00 +36°C° 0 mm 4 m/S 758 mmHg 25%
    12:00 +36°C° 0 mm 4 m/S 758 mmHg 22%
    13:00 +36°C° 0 mm 4 m/S 758 mmHg 21%
    14:00 +37°C° 0 mm 4 m/S 758 mmHg 20%
    15:00 +37°C° 0 mm 5 m/S 758 mmHg 19%
    16:00 +36°C° 0 mm 4 m/S 757 mmHg 20%
    17:00 +35°C° 0 mm 4 m/S 757 mmHg 21%
    18:00 +35°C° 0 mm 3 m/S 757 mmHg 22%
    19:00 +34°C° 0 mm 3 m/S 757 mmHg 25%
    20:00 +32°C° 0 mm 2 m/S 758 mmHg 27%
    21:00 +31°C° 0 mm 2 m/S 758 mmHg 29%
    22:00 +30°C° 0 mm 2 m/S 758 mmHg 31%
    23:00 +30°C° 0 mm 1 m/S 758 mmHg 33%

    26 August, Montag

    Zeit Temperatur Niederschläge Wind Luftdruck Luftfeuchtigkeit
    00:00 +29°C° 0 mm 1 m/S 758 mmHg 35%
    01:00 +29°C° 0 mm 1 m/S 757 mmHg 35%
    02:00 +29°C° 0 mm 1 m/S 757 mmHg 35%
    03:00 +28°C° 0 mm 1 m/S 757 mmHg 36%
    04:00 +29°C° 0 mm 2 m/S 757 mmHg 35%
    05:00 +29°C° 0 mm 2 m/S 757 mmHg 35%
    06:00 +29°C° 0 mm 3 m/S 758 mmHg 35%
    07:00 +29°C° 0 mm 3 m/S 758 mmHg 34%
    08:00 +30°C° 0 mm 3 m/S 758 mmHg 33%
    09:00 +31°C° 0 mm 3 m/S 758 mmHg 31%
    10:00 +33°C° 0 mm 4 m/S 758 mmHg 31%
    11:00 +33°C° 0 mm 4 m/S 758 mmHg 30%
    12:00 +34°C° 0 mm 4 m/S 758 mmHg 29%
    13:00 +34°C° 0 mm 5 m/S 758 mmHg 29%
    14:00 +33°C° 0 mm 5 m/S 758 mmHg 30%
    15:00 +33°C° 0 mm 6 m/S 758 mmHg 30%
    16:00 +33°C° 0 mm 6 m/S 758 mmHg 33%
    17:00 +32°C° 0 mm 6 m/S 758 mmHg 36%
    18:00 +30°C° 0 mm 6 m/S 758 mmHg 39%
    19:00 +30°C° 0 mm 6 m/S 758 mmHg 40%
    20:00 +29°C° 0 mm 5 m/S 759 mmHg 41%
    21:00 +29°C° 0 mm 5 m/S 759 mmHg 42%
    22:00 +29°C° 0 mm 5 m/S 759 mmHg 41%
    23:00 +29°C° 0 mm 6 m/S 759 mmHg 40%

    27 August, Dienstag

    Zeit Temperatur Niederschläge Wind Luftdruck Luftfeuchtigkeit
    00:00 +29°C° 0 mm 6 m/S 759 mmHg 39%
    01:00 +29°C° 0 mm 6 m/S 759 mmHg 42%
    02:00 +28°C° 0 mm 6 m/S 759 mmHg 45%
    03:00 +28°C° 0 mm 6 m/S 759 mmHg 48%
    04:00 +28°C° 0 mm 7 m/S 759 mmHg 51%
    05:00 +28°C° 0 mm 7 m/S 759 mmHg 54%
    06:00 +28°C° 0 mm 7 m/S 760 mmHg 58%
    07:00 +29°C° 0 mm 9 m/S 760 mmHg 54%
    08:00 +29°C° 0 mm 10 m/S 760 mmHg 51%
    09:00 +31°C° 0 mm 12 m/S 760 mmHg 48%
    10:00 +31°C° 0 mm 12 m/S 760 mmHg 47%
    11:00 +32°C° 0 mm 12 m/S 760 mmHg 46%
    12:00 +32°C° 0 mm 13 m/S 760 mmHg 46%
    13:00 +32°C° 0 mm 13 m/S 760 mmHg 47%
    14:00 +31°C° 0 mm 12 m/S 760 mmHg 48%
    15:00 +31°C° 0 mm 12 m/S 760 mmHg 49%
    16:00 +31°C° 0 mm 13 m/S 760 mmHg 51%
    17:00 +29°C° 0 mm 13 m/S 760 mmHg 53%
    18:00 +28°C° 0 mm 13 m/S 760 mmHg 55%
    19:00 +28°C° 0 mm 14 m/S 761 mmHg 57%
    20:00 +28°C° 0 mm 14 m/S 761 mmHg 59%
    21:00 +27°C° 0 mm 14 m/S 761 mmHg 60%
    22:00 +27°C° 0 mm 14 m/S 761 mmHg 62%
    23:00 +27°C° 0 mm 14 m/S 762 mmHg 64%
    Mehr zeigen